Powrót do katalogu

FENGYUN 1C DEB

AktywnySSO
NORAD 30120·DEBRIS·🇨🇳 China

Wystrzelony May 10, 1999 z Taiyuan Satellite Launch Center

Loading…

Następne Przeloty (najbliższe 24 godziny)

TLE

ŚwieżeSource: Space-Track

Epoka: Sep 13, 2026, 11:36 UTC

1 30120U 99025RZ  26256.48392655  .00002578  00000-0  10045-2 0  9998
2 30120  98.8439 347.2024 0062391 132.8489 289.2182 14.29533759 12910

Śledź FENGYUN 1C DEB w czasie rzeczywistym z AllMySat

Download on the App Store